STARLINK-30452, 57925

Orbit data source: Space-Track

STARLINK-30452, 57925 is a payload satellite owned by SpaceX/Seattle (US) in LEO that was launched on Sun, 24 Sep 2023 UTC via an FALCON 9 launch vehicle from the Air Force Eastern Test Range (AFETR). Payload-class satellites include a variety of spacecraft equipped with specific instruments for various scientific and technological missions. These include communications satellites like Starlink; space stations such as the ISS; scientific satellites like the Hubble; Earth observation satellites from companies like Planet Labs, Umbra, and HawkEye 360; GPS; miniature CubeSats for education and research; and military/defense satellites.

Loading next visibility...
Identifier
57925, 2023-147N
Orbit
LEO
Country
Flag of USUS
Related business
Manufacturer
SpaceX/Seattle
Mission
Operational Commercial Communications
Bus & Motor
STARLINK V2M, Unknown motor
Mass
730 kg wet, ~700 kg dry
Launch date (UTC)
2023-09-24 (3 years ago)
Launch vehicle
FALCON 9
Launch site
Air Force Eastern Test Range (AFETR)
Object type
Payload
Rocket body
Debris
Shape & HBR
Box + 2 Pan, 17.7 m
Radar Cross Section
33.884 m², Large (>1 m²)

Expand to show TLE details & history
Last TLE update: 2 days ago

TLE from 2 days ago
0 STARLINK-30452
1 57925U 23147N   26171.21940991  .00002252  00000-0  91359-4 0  9999
2 57925  43.0044 106.5939 0001883 264.3689  95.6948 15.27573781152270
Epoch: 2026-06-20T05:15Z
TLE epoch observation values (Epoch: 2026-06-20T05:15:57.016Z)
Latitude
-0.00001°
Longitude
119.16915°
Altitude
482.972 km
Speed
7.626 km/s
True Right ascension
07h 06m 22s
True Declination
0° 00' 00"
Sunlit
Object was in daylight at epoch
Visualization orbit readout
Latitude
Unknown
Longitude
Unknown
Altitude
Unknown
Speed
Unknown
Apparent Right ascension
Unknown
Apparent Declination
Unknown
Sunlit
N/A
Visualization observer readout
Local Sidereal Time
21:31:32
Azimuth
Unknown
Elevation
Unknown
Doppler factor
Unknown
Orbital elements
Apogee altitude
486.304 km
Perigee altitude
483.72 km
Semi-major axis
6,863.149 km
Eccentricity
0.00019
Inclination
43.0044°
RAAN
106.5939°
Arg. of periapsis
264.3689°
True anomaly
95.71627°
Mean anomaly
95.6948°
Eccentric anomaly
95.70554°
Mean motion
3.81732 °/min
Orbital period
94.31 mins
BSTAR
0.000091359
Loading maneuver chart data...
Computing Atmospheric mass density...

Documentation

Showing up to 5 results
|